GW7665 Weather Reports


Display with metric or nautical units.
time (UTC)temp
F
wind
direction
speed
MPH
gust
MPH
rain 1hr
in
rain 24hr
in
rain mn
in
humidity
%
barometer
mb
20260906174603 72 119 8.0 12.0 0.00 0.00 0.00 86 1020.1
20260906174054 72 110 7.0 12.0 0.00 0.00 0.00 87 1020.1
20260906173556 72 112 8.0 12.0 0.00 0.00 0.00 86 1020.2
20260906173106 72 118 7.0 11.0 0.00 0.00 0.00 87 1020.3
20260906172554 72 130 7.0 11.0 0.00 0.00 0.00 87 1020.3
20260906172054 72 116 7.0 10.0 0.00 0.00 0.00 86 1020.3
20260906171605 72 136 7.0 10.0 0.00 0.00 0.00 86 1020.3
20260906171055 72 147 7.0 12.0 0.00 0.00 0.00 86 1020.3
20260906170554 72 122 8.0 12.0 0.00 0.00 0.00 86 1020.3
20260906170106 72 128 8.0 12.0 0.00 0.00 0.00 85 1020.3
20260906165556 72 94 7.0 10.0 0.00 0.00 0.00 86 1020.4
20260906165054 72 104 6.0 10.0 0.00 0.00 0.00 87 1020.4
20260906164617 72 116 7.0 10.0 0.00 0.00 0.00 86 1020.4
20260906164054 72 119 8.0 11.0 0.00 0.00 0.00 87 1020.4
20260906163555 72 128 7.0 11.0 0.00 0.00 0.00 87 1020.4
20260906163101 72 133 8.0 11.0 0.00 0.00 0.00 88 1020.3
20260906162555 71 116 5.0 10.0 0.00 0.00 0.00 89 1020.2
20260906162053 71 99 7.0 10.0 0.00 0.00 0.00 89 1020.3
20260906161558 71 107 5.0 9.0 0.00 0.00 0.00 88 1020.1
20260906161051 71 105 7.0 9.0 0.00 0.00 0.00 89 1020.1
20260906160554 71 109 5.0 11.0 0.00 0.00 0.00 89 1020.0
20260906160055 71 120 8.0 12.0 0.00 0.00 0.00 89 1020.0
20260906155555 70 126 8.0 12.0 0.00 0.00 0.00 89 1020.0
20260906155059 70 140 9.0 14.0 0.00 0.00 0.00 90 1019.9
20260906154603 70 128 10.0 14.0 0.00 0.00 0.00 91 1019.9
20260906154056 69 138 8.0 13.0 0.00 0.00 0.00 91 1020.1
20260906153554 69 117 9.0 13.0 0.00 0.00 0.00 92 1020.1
20260906153100 69 130 7.0 13.0 0.00 0.00 0.00 92 1020.1
20260906152556 69 125 9.0 13.0 0.00 0.00 0.00 92 1020.0
20260906152054 68 101 9.0 12.0 0.00 0.00 0.00 92 1020.2
20260906151609 68 120 8.0 12.0 0.00 0.00 0.00 93 1020.2
20260906151056 68 123 9.0 12.0 0.00 0.00 0.00 93 1020.3
20260906150555 68 129 8.0 12.0 0.00 0.00 0.00 94 1020.4
20260906150109 68 114 9.0 12.0 0.00 0.00 0.00 94 1020.4
20260906145554 68 125 8.0 10.0 0.00 0.00 0.00 94 1020.4
20260906145055 68 123 7.0 10.0 0.00 0.00 0.00 95 1020.5
20260906144621 67 127 7.0 10.0 0.00 0.00 0.00 95 1020.6
20260906144055 67 136 7.0 10.0 0.00 0.00 0.00 96 1020.6
20260906143555 67 122 8.0 12.0 0.00 0.00 0.00 96 1020.4
20260906143116 67 115 8.0 12.0 0.00 0.00 0.00 96 1020.3
20260906142554 67 125 9.0 12.0 0.00 0.00 0.00 96 1020.3
20260906142055 67 115 8.0 12.0 0.00 0.00 0.00 96 1020.4
20260906141606 67 111 9.0 12.0 0.00 0.00 0.00 96 1020.4
20260906141054 67 118 7.0 13.0 0.00 0.00 0.00 96 1020.6
20260906140556 67 124 10.0 13.0 0.00 0.00 0.00 96 1020.6
20260906140107 66 128 9.0 13.0 0.00 0.00 0.00 97 1020.5
20260906135555 66 157 9.0 13.0 0.00 0.00 0.00 97 1020.5
20260906135056 66 133 9.0 13.0 0.00 0.00 0.00 97 1020.4
20260906134600 66 119 9.0 13.0 0.00 0.00 0.00 97 1020.2
20260906134056 66 129 8.0 11.0 0.00 0.00 0.00 97 1020.1
20260906133554 66 130 6.0 11.0 0.00 0.00 0.00 98 1020.1
20260906133107 66 126 9.0 11.0 0.00 0.00 0.00 97 1020.0
20260906132554 66 126 6.0 10.0 0.00 0.00 0.00 98 1019.9
20260906132056 66 115 6.0 10.0 0.00 0.00 0.00 98 1019.9
20260906131610 66 131 8.0 10.0 0.00 0.00 0.00 98 1019.9
20260906131053 66 130 6.0 9.0 0.00 0.00 0.00 98 1019.9
20260906130553 66 111 6.0 12.0 0.00 0.00 0.00 98 1019.8
20260906130106 66 109 8.0 13.0 0.00 0.00 0.00 98 1019.7
20260906125553 66 100 8.0 13.0 0.00 0.00 0.00 98 1019.6
20260906125053 66 119 10.0 16.0 0.00 0.00 0.00 98 1019.7
20260906124604 66 119 11.0 16.0 0.00 0.00 0.00 98 1019.7
20260906124053 66 107 11.0 14.0 0.00 0.00 0.00 98 1019.7
20260906123554 66 121 11.0 13.0 0.00 0.00 0.00 98 1019.6
20260906123110 66 119 9.0 13.0 0.00 0.00 0.00 98 1019.6
20260906122553 66 110 8.0 13.0 0.00 0.00 0.00 98 1019.5
20260906122056 66 115 10.0 13.0 0.00 0.00 0.00 98 1019.5
20260906121602 66 113 8.0 14.0 0.00 0.00 0.00 98 1019.5
20260906121053 66 117 9.0 13.0 0.00 0.00 0.00 98 1019.5
20260906120556 66 114 10.0 13.0 0.00 0.00 0.00 98 1019.5
20260906120126 66 134 9.0 12.0 0.00 0.00 0.00 98 1019.4
20260906115553 66 128 8.0 11.0 0.00 0.00 0.00 98 1019.4
20260906115055 66 119 8.0 11.0 0.00 0.00 0.00 98 1019.2
20260906114618 66 129 9.0 11.0 0.00 0.00 0.00 98 1019.1
20260906114056 66 126 7.0 11.0 0.00 0.00 0.00 98 1019.2
20260906113553 66 129 8.0 11.0 0.00 0.00 0.00 98 1019.1
20260906113058 67 122 5.0 11.0 0.00 0.00 0.00 98 1019.2
20260906112553 67 136 7.0 11.0 0.00 0.00 0.00 98 1019.3
20260906112052 67 142 4.0 8.0 0.00 0.00 0.00 98 1019.4
20260906111604 67 122 4.0 11.0 0.00 0.00 0.00 98 1019.3
20260906111057 67 133 7.0 11.0 0.00 0.00 0.00 98 1019.3
20260906110553 67 131 6.0 12.0 0.00 0.00 0.00 98 1019.2
20260906110111 67 142 9.0 12.0 0.00 0.00 0.00 98 1019.1
20260906105553 67 135 9.0 14.0 0.00 0.01 0.00 98 1019.1
20260906105054 67 130 9.0 14.0 0.00 0.01 0.00 98 1019.0
20260906104605 67 156 7.0 12.0 0.00 0.01 0.00 98 1018.9
20260906104058 67 143 9.0 15.0 0.00 0.01 0.00 98 1018.9
20260906103553 67 146 9.0 15.0 0.00 0.01 0.00 98 1018.9
20260906103059 67 142 10.0 15.0 0.00 0.01 0.00 98 1018.9
20260906102554 67 124 7.0 12.0 0.00 0.01 0.00 98 1018.9
20260906102054 67 128 7.0 11.0 0.00 0.01 0.00 98 1018.8
20260906101604 67 138 8.0 12.0 0.00 0.01 0.00 98 1018.7
20260906101054 67 138 8.0 13.0 0.00 0.01 0.00 98 1018.7
20260906100554 67 117 9.0 13.0 0.00 0.01 0.00 98 1018.6
20260906100105 67 136 7.0 11.0 0.00 0.01 0.00 98 1018.6
20260906095554 66 136 7.0 11.0 0.00 0.01 0.00 98 1018.7
20260906095057 66 123 5.0 8.0 0.00 0.01 0.00 98 1018.7
20260906094557 65 140 5.0 8.0 0.00 0.01 0.00 97 1018.7
20260906094054 66 136 4.0 8.0 0.00 0.01 0.00 97 1018.6
20260906093555 66 109 6.0 8.0 0.00 0.01 0.00 97 1018.5
20260906093115 66 111 6.0 8.0 0.00 0.01 0.00 97 1018.4
20260906092554 66 103 6.0 9.0 0.00 0.01 0.00 97 1018.2
20260906092055 66 102 7.0 10.0 0.00 0.01 0.00 97 1018.2
20260906091606 66 107 7.0 10.0 0.00 0.01 0.00 97 1018.0
20260906091059 66 109 6.0 10.0 0.00 0.01 0.00 97 1018.0
20260906090554 66 100 8.0 11.0 0.00 0.01 0.00 97 1018.0
20260906090133 66 111 8.0 11.0 0.00 0.01 0.00 97 1017.9
20260906085554 66 114 9.0 11.0 0.00 0.01 0.00 97 1017.8
20260906085054 66 113 8.0 10.0 0.00 0.01 0.00 97 1017.9
20260906084558 66 102 7.0 10.0 0.00 0.01 0.00 97 1017.9
20260906084053 67 84 7.0 11.0 0.00 0.01 0.00 97 1017.8
20260906083554 67 117 8.0 11.0 0.00 0.01 0.00 97 1017.8
20260906083056 67 108 7.0 11.0 0.00 0.01 0.00 97 1017.8
20260906082554 67 102 8.0 11.0 0.00 0.01 0.00 97 1017.9
20260906082053 67 111 7.0 10.0 0.00 0.01 0.00 97 1018.1
20260906081557 66 112 7.0 10.0 0.00 0.01 0.00 97 1018.0
20260906081056 66 111 5.0 8.0 0.00 0.01 0.00 97 1018.1
20260906080554 66 84 3.0 9.0 0.00 0.01 0.00 97 1018.1
20260906080105 67 107 7.0 9.0 0.00 0.01 0.00 97 1018.0
20260906075555 67 101 7.0 11.0 0.00 0.01 0.00 97 1018.1
20260906075055 67 108 6.0 11.0 0.00 0.01 0.00 97 1018.1
20260906074600 67 78 7.0 9.0 0.00 0.01 0.00 97 1018.1
20260906074054 67 86 6.0 9.0 0.00 0.01 0.00 97 1018.2
20260906073554 67 103 5.0 10.0 0.00 0.01 0.00 97 1018.1
20260906073057 67 98 7.0 9.0 0.00 0.01 0.00 97 1018.2
20260906072558 67 105 7.0 9.0 0.00 0.01 0.00 97 1018.3
20260906072056 67 102 6.0 8.0 0.00 0.01 0.00 97 1018.4
20260906071610 67 88 5.0 8.0 0.00 0.01 0.00 97 1018.5
20260906071056 67 107 6.0 8.0 0.00 0.01 0.00 97 1018.4
20260906070553 67 116 5.0 7.0 0.00 0.01 0.00 97 1018.5
20260906070105 67 83 5.0 8.0 0.00 0.01 0.00 97 1018.5
20260906065553 67 104 5.0 9.0 0.00 0.01 0.00 97 1018.5
20260906065055 67 113 6.0 9.0 0.00 0.01 0.00 97 1018.5
20260906064600 67 104 6.0 9.0 0.00 0.01 0.00 97 1018.5
20260906064056 67 103 6.0 8.0 0.00 0.01 0.00 97 1018.6
20260906063555 67 109 6.0 8.0 0.00 0.01 0.00 97 1018.6
20260906063106 67 106 5.0 8.0 0.00 0.01 0.00 97 1018.7
20260906062552 67 66 4.0 8.0 0.00 0.01 0.00 97 1018.7
20260906062057 67 101 6.0 8.0 0.00 0.01 0.00 97 1018.6
20260906061607 67 103 5.0 7.0 0.00 0.01 0.00 96 1018.6
20260906061054 67 96 5.0 7.0 0.00 0.01 0.00 96 1018.7
20260906060553 68 89 2.0 7.0 0.00 0.01 0.00 96 1018.7
20260906060109 68 98 4.0 7.0 0.00 0.01 0.00 96 1018.7
20260906055553 68 113 3.0 6.0 0.00 0.01 0.00 97 1018.8
20260906055054 68 103 4.0 7.0 0.00 0.01 0.00 97 1018.8
20260906054607 68 109 5.0 7.0 0.00 0.01 0.00 97 1018.7
20260906054056 68 111 4.0 7.0 0.00 0.01 0.00 96 1018.7
20260906053556 68 101 4.0 8.0 0.00 0.01 0.00 97 1018.7
20260906053058 68 66 5.0 8.0 0.00 0.01 0.00 97 1018.7
20260906052555 68 103 5.0 7.0 0.00 0.01 0.00 97 1018.7
20260906052056 68 109 5.0 7.0 0.00 0.01 0.00 97 1018.6
20260906051606 68 107 6.0 7.0 0.00 0.01 0.00 97 1018.6
20260906051052 69 113 4.0 6.0 0.00 0.01 0.00 97 1018.6
20260906050552 69 85 3.0 6.0 0.00 0.01 0.00 97 1018.6
20260906050132 69 96 4.0 6.0 0.00 0.01 0.00 97 1018.6
20260906045553 69 104 4.0 6.0 0.00 0.01 0.01 97 1018.5
20260906045053 69 111 3.0 7.0 0.00 0.01 0.01 97 1018.5
20260906044559 69 66 2.0 7.0 0.00 0.01 0.01 96 1018.6
20260906044053 69 88 3.0 7.0 0.00 0.01 0.01 96 1018.6
20260906043552 68 101 2.0 4.0 0.00 0.01 0.01 96 1018.6
20260906043110 69 69 2.0 6.0 0.00 0.01 0.01 96 1018.7
20260906042552 69 78 2.0 6.0 0.00 0.01 0.01 96 1018.7
20260906042058 69 105 3.0 6.0 0.00 0.01 0.01 96 1018.6
20260906041606 69 128 1.0 4.0 0.00 0.01 0.01 96 1018.7
20260906041053 69 67 2.0 4.0 0.00 0.01 0.01 96 1018.7
20260906040554 69 47 1.0 4.0 0.00 0.01 0.01 96 1018.7
20260906040109 69 68 2.0 6.0 0.00 0.01 0.01 96 1018.7
20260906035555 69 99 3.0 6.0 0.00 0.01 0.01 96 1018.6
20260906035054 69 93 2.0 6.0 0.00 0.01 0.01 96 1018.5
20260906034559 70 82 3.0 6.0 0.00 0.01 0.01 96 1018.5
20260906034056 70 105 4.0 6.0 0.00 0.01 0.01 96 1018.4
20260906033553 70 115 2.0 7.0 0.00 0.01 0.01 96 1018.4
20260906033058 70 78 5.0 7.0 0.00 0.01 0.01 96 1018.2
20260906032554 70 106 5.0 7.0 0.00 0.01 0.01 96 1018.2
20260906032056 70 76 3.0 6.0 0.00 0.01 0.01 96 1018.3
20260906031604 70 109 4.0 7.0 0.00 0.01 0.01 96 1018.2
20260906031055 70 99 4.0 7.0 0.00 0.01 0.01 95 1018.2
20260906030555 70 103 5.0 8.0 0.00 0.01 0.01 96 1018.3
20260906030132 70 107 5.0 8.0 0.00 0.01 0.01 96 1018.2
20260906025555 71 111 5.0 7.0 0.00 0.01 0.01 96 1018.2
20260906025054 71 58 3.0 6.0 0.00 0.01 0.01 95 1018.2
20260906024609 71 99 4.0 7.0 0.00 0.01 0.01 95 1018.0
20260906024054 71 103 4.0 7.0 0.00 0.01 0.01 95 1018.0
20260906023555 71 108 5.0 7.0 0.00 0.01 0.01 95 1018.1
20260906023126 71 105 5.0 7.0 0.00 0.01 0.01 95 1017.9
20260906022554 71 122 4.0 6.0 0.00 0.01 0.01 95 1017.8
20260906022057 71 85 3.0 6.0 0.00 0.01 0.01 95 1017.9
20260906021616 71 85 4.0 8.0 0.00 0.01 0.01 95 1017.9
20260906021054 71 96 5.0 8.0 0.00 0.01 0.01 95 1017.8
20260906020553 71 89 3.0 6.0 0.00 0.01 0.01 95 1017.7
20260906020107 71 103 4.0 6.0 0.00 0.01 0.01 95 1017.7
20260906015554 71 100 4.0 8.0 0.00 0.01 0.01 95 1017.5
20260906015053 71 98 4.0 8.0 0.00 0.01 0.01 95 1017.4
20260906014623 71 89 3.0 8.0 0.00 0.01 0.01 95 1017.4
20260906014055 71 80 1.0 5.0 0.00 0.01 0.01 95 1017.3
20260906013554 71 88 2.0 5.0 0.00 0.01 0.01 95 1017.3
20260906013120 71 111 2.0 7.0 0.00 0.01 0.01 95 1017.1
20260906012552 71 65 2.0 7.0 0.00 0.01 0.01 95 1017.2
20260906012054 71 92 2.0 7.0 0.00 0.01 0.01 94 1017.0
20260906011604 71 78 1.0 7.0 0.00 0.01 0.01 94 1017.0
20260906011056 71 91 2.0 7.0 0.00 0.01 0.01 94 1016.9
20260906010555 72 101 1.0 3.0 0.00 0.01 0.01 94 1016.9
20260906010100 72 0 0.0 3.0 0.00 0.01 0.01 94 1017.0
20260906005554 72 90 1.0 6.0 0.00 0.01 0.01 94 1016.9
20260906005054 72 101 2.0 6.0 0.00 0.01 0.01 94 1016.7
20260906004606 72 98 2.0 3.0 0.00 0.01 0.01 94 1016.7
20260906004054 72 101 2.0 3.0 0.00 0.01 0.01 93 1016.7
20260906003554 72 101 1.0 4.0 0.00 0.01 0.01 93 1016.6
20260906003108 72 88 2.0 4.0 0.00 0.01 0.01 93 1016.5
20260906002555 73 82 0.0 4.0 0.00 0.01 0.01 93 1016.4
20260906002055 73 85 2.0 4.0 0.00 0.01 0.01 93 1016.4
20260906001559 73 92 3.0 4.0 0.00 0.01 0.01 92 1016.4
20260906001056 73 103 3.0 6.0 0.00 0.01 0.01 92 1016.3
20260906000554 73 95 3.0 6.0 0.00 0.01 0.01 92 1016.4
20260906000110 73 93 3.0 5.0 0.00 0.01 0.01 91 1016.3
20260905235556 74 100 2.0 6.0 0.00 0.01 0.01 91 1016.3
20260905235054 74 105 2.0 6.0 0.00 0.01 0.01 91 1016.3
20260905234615 74 107 3.0 6.0 0.00 0.01 0.01 91 1016.4
20260905234055 74 90 3.0 6.0 0.00 0.01 0.01 90 1016.4
20260905233554 74 116 4.0 6.0 0.00 0.01 0.01 90 1016.3
20260905233100 74 80 2.0 6.0 0.00 0.01 0.01 90 1016.2
20260905232555 74 103 2.0 6.0 0.00 0.01 0.01 90 1016.3
20260905232055 74 70 2.0 6.0 0.00 0.01 0.01 90 1016.3
20260905231608 74 16 1.0 5.0 0.00 0.01 0.01 90 1016.4
20260905231054 74 105 1.0 5.0 0.00 0.01 0.01 90 1016.4
20260905230555 75 61 2.0 5.0 0.00 0.01 0.01 89 1016.4
20260905230109 75 32 1.0 5.0 0.00 0.01 0.01 89 1016.4
20260905225556 75 113 2.0 6.0 0.00 0.01 0.01 89 1016.3
20260905225054 75 84 2.0 8.0 0.00 0.01 0.01 89 1016.2
20260905224609 75 127 3.0 10.0 0.00 0.01 0.01 89 1016.2
20260905224053 75 85 5.0 12.0 0.00 0.01 0.01 89 1016.1
20260905223554 75 103 7.0 12.0 0.00 0.01 0.01 88 1016.0
20260905223108 75 105 8.0 15.0 0.00 0.01 0.01 88 1016.0
20260905222555 75 98 8.0 15.0 0.00 0.01 0.01 88 1015.9
20260905222055 75 106 10.0 13.0 0.00 0.01 0.01 88 1015.9
20260905221605 75 96 8.0 12.0 0.00 0.01 0.01 89 1015.9
20260905221054 75 96 8.0 12.0 0.00 0.01 0.01 89 1015.9
20260905220554 75 111 5.0 10.0 0.00 0.01 0.01 90 1015.9
20260905220103 75 71 3.0 8.0 0.00 0.01 0.01 90 1016.0
20260905215554 75 41 2.0 6.0 0.00 0.01 0.01 90 1016.0
20260905215054 75 29 2.0 7.0 0.00 0.01 0.01 90 1016.1
20260905214606 75 92 1.0 7.0 0.00 0.01 0.01 91 1016.1
20260905214054 75 98 2.0 11.0 0.00 0.01 0.01 90 1016.0
20260905213554 75 92 3.0 12.0 0.00 0.01 0.01 90 1016.1
20260905213103 75 107 9.0 13.0 0.00 0.01 0.01 90 1015.9
20260905212554 75 92 6.0 13.0 0.00 0.01 0.01 90 1015.9
20260905212053 74 85 6.0 10.0 0.00 0.01 0.01 90 1016.0
20260905211604 74 131 4.0 10.0 0.00 0.01 0.01 90 1016.1
20260905211053 74 109 4.0 10.0 0.00 0.01 0.01 90 1016.2
20260905210554 74 63 3.0 10.0 0.00 0.01 0.01 90 1016.2
20260905210106 74 34 4.0 10.0 0.00 0.01 0.01 90 1016.2
20260905205555 74 116 3.0 9.0 0.00 0.01 0.01 90 1016.1
20260905205058 74 83 2.0 12.0 0.00 0.01 0.01 91 1016.0
20260905204558 74 101 3.0 12.0 0.00 0.01 0.01 90 1016.1
20260905204053 74 65 3.0 11.0 0.00 0.01 0.01 90 1016.1
20260905203557 74 9 2.0 11.0 0.00 0.01 0.01 90 1016.2
20260905203108 74 71 3.0 11.0 0.00 0.01 0.01 90 1016.2
20260905202555 74 169 3.0 11.0 0.00 0.01 0.01 90 1016.3
20260905202053 74 360 1.0 9.0 0.00 0.01 0.01 90 1016.4
20260905201607 74 46 2.0 9.0 0.00 0.01 0.01 91 1016.5
20260905201053 74 35 2.0 10.0 0.00 0.01 0.01 90 1016.6
20260905200555 74 117 5.0 10.0 0.00 0.01 0.01 89 1016.7
20260905200101 74 67 3.0 9.0 0.00 0.01 0.01 89 1016.7
20260905195555 75 119 2.0 11.0 0.00 0.01 0.01 90 1016.5
20260905195053 74 94 5.0 11.0 0.00 0.01 0.01 89 1016.6
20260905194608 75 28 3.0 10.0 0.00 0.01 0.01 88 1016.5
20260905194054 75 73 3.0 10.0 0.00 0.01 0.01 88 1016.7
20260905193551 75 56 2.0 10.0 0.00 0.01 0.01 88 1017.0
20260905193106 75 82 2.0 8.0 0.00 0.01 0.01 89 1017.0
20260905192556 75 36 4.0 8.0 0.00 0.01 0.01 88 1017.2
20260905192057 75 20 2.0 8.0 0.00 0.01 0.01 88 1017.3
20260905191615 75 25 3.0 7.0 0.00 0.01 0.01 88 1017.5
20260905191054 75 22 1.0 4.0 0.00 0.01 0.01 89 1017.8
20260905190556 75 98 1.0 8.0 0.00 0.01 0.01 90 1017.9
20260905190103 74 22 3.0 8.0 0.00 0.01 0.01 89 1017.9
20260905185556 74 26 1.0 3.0 0.00 0.01 0.01 91 1018.1
20260905185055 73 295 1.0 3.0 0.00 0.01 0.01 90 1018.2
20260905184618 73 340 1.0 5.0 0.00 0.01 0.01 90 1018.3
20260905184053 73 300 1.0 5.0 0.00 0.01 0.01 89 1018.4
20260905183554 74 63 2.0 6.0 0.00 0.01 0.01 90 1018.2
20260905183100 74 42 1.0 6.0 0.00 0.01 0.01 89 1018.1
20260905182557 74 136 3.0 7.0 0.00 0.01 0.01 89 1018.1
20260905182058 74 80 2.0 7.0 0.00 0.01 0.01 89 1018.1
20260905181604 74 33 2.0 5.0 0.00 0.01 0.01 91 1018.1
20260905181054 74 219 2.0 5.0 0.00 0.01 0.01 91 1018.0
20260905180554 73 51 2.0 6.0 0.00 0.01 0.01 90 1018.2
20260905175554 74 22 2.0 9.0 0.00 0.01 0.01 90 1018.5
20260905175053 74 109 4.0 9.0 0.00 0.01 0.01 90 1018.4